Location: Corralito
(10.2667°N, 66.9500°W)
Time: 10:06:16
(UTC+00:00)

Cosmos 1331 Rocket - Pass Details

Date: 08 December 2023
Orbit: 748 x 775 km, 74.0° (Epoch: 24 February)

Event Time Altitude Azimuth Distance (km) Brightness Sun altitude
Rises 10:05:00 0° 355° (N) 3,198 6.9 -7.3°
Reaches altitude 10° 10:07:25 10° 359° (N) 2,270 6.2 -6.7°
Maximum altitude 10:12:26 54° 77° (ENE) 906 4.8 -5.6°
Drops below altitude 10° 10:17:26 10° 154° (SSE) 2,261 7.3 -4.4°
Sets 10:19:49 0° 158° (SSE) 3,183 7.9 -3.9°
